Change the Weather History Date:

Saturday, April 14, 2012

  Actual Average Record
Temperature  
Mean Temperature 56 °F 47 °F  
Max Temperature 70 °F 61 °F 83 °F (2002)
Min Temperature 42 °F 32 °F 14 °F (1983)
Degree Days  
Heating Degree Days 9 18  
Month to date heating degree days 192 285  
Since 1 July heating degree days 5245 5670  
Cooling Degree Days 0 0  
Month to date cooling degree days 0 0  
Year to date cooling degree days 0 0  
Growing Degree Days 6 (Base 50)    
Moisture  
Dew Point 38 °F    
Average Humidity 56    
Maximum Humidity 83    
Minimum Humidity 28    
Precipitation  
Precipitation 0.02 in 0.07 in 0.68 in (1977)
Month to date precipitation 0.10 0.80  
Year to date precipitation 0.62 2.42  
Sea Level Pressure  
Sea Level Pressure 29.53 in    
Wind  
Wind Speed 12 mph (NE)    
Max Wind Speed 30 mph    
Max Gust Speed 38 mph    
Visibility 10 miles    
Events Rain    
T = Trace of Precipitation, MM = Missing Value Source: NWS Daily Summary

Daily Weather History Graph

Daily Weather History Graph

Search for Another Location

Airport or City:

Trip Planner

Search our weather history database for the weather conditions in past years. The results will help you decide how hot, cold, wet, or windy it might be!

Date:

Astronomy

Apr. 14, 2012 Rise Set
Actual Time 6:13 AM MDT 7:31 PM MDT
Civil Twilight 5:44 AM MDT 7:59 PM MDT
Nautical Twilight 5:10 AM MDT 8:34 PM MDT
Astronomical Twilight 4:34 AM MDT 9:10 PM MDT
Moon 2:41 AM MDT (4/14) 1:23 PM MDT (4/14)
Length of Visible Light 14h 15m
Length of Day
13h 17m
Last Quarter, 36% of the Moon is Illuminated
Apr 14
Last Quarter
Apr 21
New
Apr 29
First Quarter
May 5
Full
May 12
Last Quarter

Hourly Weather History & Observations

Time (MDT) Temp. Windchill Dew Point Humidity Pressure Visibility Wind Dir Wind Speed Gust Speed Precip Events Conditions
12:53 AM 51.1 °F - 30.9 °F 46% 29.65 in 10.0 mi ENE 6.9 mph - N/A   Overcast
1:53 AM 48.9 °F - 33.1 °F 54% 29.66 in 10.0 mi ESE 9.2 mph - N/A   Mostly Cloudy
2:53 AM 48.0 °F - 33.1 °F 56% 29.65 in 10.0 mi SE 10.4 mph - N/A   Clear
3:53 AM 44.1 °F 39.5 °F 33.1 °F 65% 29.64 in 10.0 mi SE 8.1 mph - N/A   Clear
4:53 AM 45.0 °F 39.3 °F 32.0 °F 60% 29.63 in 10.0 mi SE 11.5 mph - N/A   Overcast
5:53 AM 43.0 °F 38.8 °F 33.1 °F 68% 29.61 in 10.0 mi East 6.9 mph - N/A   Overcast
6:48 AM 44.6 °F 40.7 °F 33.8 °F 66% 29.64 in 10.0 mi East 6.9 mph - N/A   Mostly Cloudy
6:53 AM 44.1 °F 42.5 °F 34.0 °F 68% 29.59 in 10.0 mi East 3.5 mph - N/A   Mostly Cloudy
7:24 AM 44.6 °F 40.7 °F 35.6 °F 71% 29.63 in 10.0 mi East 6.9 mph - N/A   Overcast
7:53 AM 46.9 °F - 36.0 °F 66% 29.57 in 10.0 mi ESE 8.1 mph - N/A   Overcast
8:53 AM 48.9 °F - 41.0 °F 74% 29.55 in 10.0 mi SSE 13.8 mph - N/A   Overcast
9:17 AM 50.0 °F - 42.8 °F 76% 29.59 in 10.0 mi SE 9.2 mph - N/A   Overcast
9:53 AM 53.1 °F - 43.0 °F 69% 29.51 in 10.0 mi SSE 8.1 mph - N/A   Overcast
10:11 AM 55.4 °F - 42.8 °F 63% 29.58 in 10.0 mi South 9.2 mph - N/A   Scattered Clouds
10:53 AM 57.0 °F - 43.0 °F 59% 29.49 in 10.0 mi Variable 4.6 mph - N/A   Scattered Clouds
11:53 AM 62.1 °F - 41.0 °F 46% 29.45 in 10.0 mi WSW 8.1 mph - N/A   Clear
12:53 PM 64.9 °F - 39.0 °F 39% 29.41 in 10.0 mi Variable 4.6 mph - N/A   Clear
1:53 PM 66.9 °F - 37.0 °F 33% 29.38 in 10.0 mi West 6.9 mph - N/A   Partly Cloudy
2:53 PM 69.1 °F - 36.0 °F 30% 29.36 in 10.0 mi North 11.5 mph 16.1 mph N/A   Mostly Cloudy
3:53 PM 64.0 °F - 35.1 °F 34% 29.37 in 10.0 mi NNE 15.0 mph - N/A   Mostly Cloudy
4:53 PM 57.0 °F - 42.1 °F 57% 29.42 in 10.0 mi NNW 20.7 mph 31.1 mph 0.00 in Rain Light Rain
5:53 PM 57.0 °F - 42.1 °F 57% 29.43 in 10.0 mi NNW 26.5 mph 34.5 mph 0.01 in   Mostly Cloudy
6:53 PM 52.0 °F - 41.0 °F 66% 29.48 in 10.0 mi NNW 16.1 mph 25.3 mph N/A   Overcast
7:53 PM 48.9 °F - 39.9 °F 71% 29.52 in 10.0 mi North 15.0 mph - N/A   Overcast
8:05 PM 48.2 °F - 39.2 °F 71% 29.56 in 10.0 mi North 9.2 mph - N/A   Overcast
8:44 PM 48.2 °F - 41.0 °F 76% 29.55 in 10.0 mi North 10.4 mph - 0.00 in   Overcast
8:53 PM 48.0 °F - 42.1 °F 80% 29.50 in 10.0 mi North 13.8 mph - 0.00 in   Overcast
9:06 PM 46.4 °F 41.1 °F 42.8 °F 87% 29.56 in 10.0 mi North 11.5 mph - N/A   Overcast
9:53 PM 46.0 °F 41.0 °F 41.0 °F 83% 29.48 in 10.0 mi NNW 10.4 mph - N/A   Mostly Cloudy
10:25 PM 46.4 °F 40.4 °F 41.0 °F 81% 29.55 in 10.0 mi NW 13.8 mph 23.0 mph N/A   Overcast
10:53 PM 46.0 °F 39.9 °F 39.9 °F 79% 29.50 in 10.0 mi NW 13.8 mph 20.7 mph N/A   Overcast
11:53 PM 45.0 °F 36.6 °F 39.9 °F 82% 29.42 in 10.0 mi NNW 21.9 mph 29.9 mph N/A   Overcast